World > North America > United States > New York
Hourly Weather in Plainfield, New YorkPlainfield, New York Hourly Weather

Plainfield, NY Hourly Weather

Hourly Weather Plainfield, New YorkHourly Weather in Plainfield, NY
Lat: 42.88N, Lon: 75.19W  ICAO: KRME
Web Search

If you are on your PC, you can easily pass this page to your phone by scanning the QR Code near the bottom with your camera.

Feedback

Plainfield Hourly Weather

36 Hour Weather Scroll   °F Click to change Plainfield hourly weather to Imperial units.Click to change Plainfield hourly weather to Metric units. °C
Currently, Overcast, temperature is 63°F17°C, dew point 61°F16°C, humidity 93%. Wind direction is NNE at 7 mph11 km/h with visibility of 10.00 mi16 km. Barometric pressure is 29.77 in1008 mb.

Sep 28
5:00 AM

Sep 28
6:00 AM

Sep 28
7:00 AM

Sep 28
8:00 AM

Sep 28
9:00 AM

Sep 28
10:00 AM

Sep 28
11:00 AM

Sep 28
NOON

Sep 28
1:00 PM

Sep 28
2:00 PM

Sep 28
3:00 PM

Sep 28
4:00 PM

Sep 28
5:00 PM

Sep 28
6:00 PM

Sep 28
7:00 PM

Sep 28
8:00 PM

Sep 28
9:00 PM

Sep 28
10:00 PM

Sep 28
11:00 PM

Sep 29
MIDNIGHT

Sep 29
1:00 AM

Sep 29
2:00 AM

Sep 29
3:00 AM

Sep 29
4:00 AM

Sep 29
5:00 AM

Sep 29
6:00 AM

Sep 29
7:00 AM

Sep 29
8:00 AM

Sep 29
9:00 AM

Sep 29
10:00 AM

Sep 29
11:00 AM

Sep 29
NOON

Sep 29
1:00 PM

Sep 29
2:00 PM

Sep 29
3:00 PM

Sep 29
4:00 PM
Cloudy Cloudy Cloudy Cloudy Cloudy Mostly Cloudy Mostly Cloudy Mostly Cloudy Partly Cloudy Partly Cloudy Partly Cloudy Mostly Clear Mostly Clear Mostly Clear Partly Cloudy Partly Cloudy Partly Cloudy Mostly Clear Mostly Clear Mostly Clear Clear Clear Clear Clear Clear Clear Clear Clear Clear Partly Cloudy Partly Cloudy Partly Cloudy Mostly Cloudy Mostly Cloudy Mostly Cloudy Mostly Cloudy
Cloudy Cloudy Cloudy Cloudy Cloudy Mostly Cloudy Mostly Cloudy Mostly Cloudy Partly Cloudy Partly Cloudy Partly Cloudy Mostly Clear Mostly Clear Mostly Clear Partly Cloudy Partly Cloudy Partly Cloudy Mostly Clear Mostly Clear Mostly Clear Clear Clear Clear Clear Clear Clear Clear Clear Clear Partly Cloudy Partly Cloudy Partly Cloudy Mostly Cloudy Mostly Cloudy Mostly Cloudy Mostly Cloudy
58°F14°C 58°F14°C 57°F14°C 57°F14°C 58°F14°C 59°F15°C 60°F16°C 61°F16°C 63°F17°C 64°F18°C 64°F18°C 63°F17°C 63°F17°C 60°F16°C 58°F14°C 55°F13°C 53°F12°C 51°F11°C 49°F9°C 48°F9°C 47°F8°C 46°F8°C 45°F7°C 44°F7°C 43°F6°C 43°F6°C 44°F7°C 44°F7°C 48°F9°C 51°F11°C 55°F13°C 56°F13°C 58°F14°C 59°F15°C 59°F15°C 58°F14°C
Rain Rain Rain Rain - - - - - - - - - - - - - - - - - - - - - - - - - - - - - - - -
21% 21% 21% 21% 7% 7% 7% 7% 7% 7% 0% 0% 0% 0% 0% 0% 1% 1% 1% 1% 1% 1% 1% 1% 1% 1% 1% 1% 0% 0% 0% 0% 0% 0% 1% 1%
57°F14°C 56°F13°C 56°F13°C 55°F13°C 54°F12°C 54°F12°C 53°F12°C 52°F11°C 50°F10°C 49°F9°C 48°F9°C 46°F8°C 45°F7°C 45°F7°C 45°F7°C 45°F7°C 45°F7°C 45°F7°C 45°F7°C 44°F7°C 44°F7°C 43°F6°C 42°F6°C 42°F6°C 41°F5°C 41°F5°C 41°F5°C 41°F5°C 42°F6°C 42°F6°C 43°F6°C 43°F6°C 42°F6°C 42°F6°C 42°F6°C 43°F6°C
96% 93% 96% 93% 87% 83% 78% 72% 63% 58% 56% 54% 52% 58% 62% 69% 74% 80% 86% 86% 89% 89% 89% 93% 93% 93% 89% 89% 80% 71% 64% 62% 55% 53% 53% 57%
NNW NW NW NW NW NW NW NW NW NW NW NW NW NW NW NW SW SE ENE NE NNE N E S SSW W NW NNW NW NW WNW WNW WNW WNW NW NW
4 mph 4 mph 5 mph 5 mph 5 mph 6 mph 6 mph 6 mph 11 mph 11 mph 11 mph 9 mph 9 mph 9 mph 6 mph 6 mph 6 mph 1 mph 1 mph 1 mph 0 mph 0 mph 0 mph 2 mph 2 mph 2 mph 1 mph 1 mph 1 mph 7 mph 7 mph 7 mph 12 mph 12 mph 12 mph 9 mph
5 mi8 km 6 mi10 km 6 mi10 km 10 mi16 km 10 mi16 km 10 mi16 km 10 mi16 km 10 mi16 km 10 mi16 km 10 mi16 km 10 mi16 km 10 mi16 km 10 mi16 km 10 mi16 km 10 mi16 km 10 mi16 km 10 mi16 km 10 mi16 km 10 mi16 km 10 mi16 km 10 mi16 km 10 mi16 km 10 mi16 km 10 mi16 km 10 mi16 km 10 mi16 km 10 mi16 km 10 mi16 km 10 mi16 km 10 mi16 km 10 mi16 km 10 mi16 km 10 mi16 km 10 mi16 km 10 mi16 km 10 mi16 km
Hour (EDT)
Weather
Clouds
Temperature
Precip. Type
POP
Dewpoint
Humidity
Wind Direction
Wind Speed
Visibility
POP = Probability of Precipitation. ** Indicates missing data/values from model statistics.

24 Hour Forecast

Today - Mostly cloudy with isolated showers this morning, then mostly sunny this afternoon. Highs in the upper 60s. Northwest winds 5 to 10 mph. Chance of rain 20%.
Tonight - Partly cloudy in the evening, then clearing. Much cooler with lows in the lower 40s. Northwest winds 5 to 10 mph.

48 Hour Forecast API Feed


Tue, Sep 28
5:00 am

Tue, Sep 28
6:00 am

Tue, Sep 28
7:00 am

Tue, Sep 28
8:00 am

Tue, Sep 28
9:00 am

Tue, Sep 28
10:00 am

Tue, Sep 28
11:00 am

Tue, Sep 28
Noon

Tue, Sep 28
1:00 pm

Tue, Sep 28
2:00 pm

Tue, Sep 28
3:00 pm

Tue, Sep 28
4:00 pm

Tue, Sep 28
5:00 pm

Tue, Sep 28
6:00 pm

Tue, Sep 28
7:00 pm

Tue, Sep 28
8:00 pm

Tue, Sep 28
9:00 pm

Tue, Sep 28
10:00 pm

Tue, Sep 28
11:00 pm

Wed, Sep 29
Midnight

Wed, Sep 29
1:00 am

Wed, Sep 29
2:00 am

Wed, Sep 29
3:00 am

Wed, Sep 29
4:00 am

Wed, Sep 29
5:00 am

Wed, Sep 29
6:00 am

Wed, Sep 29
7:00 am

Wed, Sep 29
8:00 am

Wed, Sep 29
9:00 am

Wed, Sep 29
10:00 am

Wed, Sep 29
11:00 am

Wed, Sep 29
Noon

Wed, Sep 29
1:00 pm

Wed, Sep 29
2:00 pm

Wed, Sep 29
3:00 pm

Wed, Sep 29
4:00 pm

Wed, Sep 29
5:00 pm

Wed, Sep 29
6:00 pm

Wed, Sep 29
7:00 pm

Wed, Sep 29
8:00 pm

Wed, Sep 29
9:00 pm

Wed, Sep 29
10:00 pm

Wed, Sep 29
11:00 pm

Thu, Sep 30
Midnight

Thu, Sep 30
1:00 am

Thu, Sep 30
2:00 am

Thu, Sep 30
3:00 am

Thu, Sep 30
4:00 am
CloudyMistFogFogOvercastOvercastOvercastPartly CloudyPartly CloudyPartly CloudyPartly CloudyPartly CloudyOvercastPartly CloudyPartly CloudyPartly CloudyPartly CloudyPartly CloudyPartly CloudyPartly CloudyPartly CloudyPartly CloudyPartly CloudyPartly CloudyPartly CloudyPartly CloudyPartly CloudyPartly CloudyPartly CloudyPartly CloudyPartly CloudyPartly CloudyPartly CloudyPartly CloudyPartly CloudyPartly CloudyPartly CloudyPartly CloudyPartly CloudyPartly CloudyOvercastOvercastPatchy Rain PossibleCloudyPartly CloudyMistMistMist
Cloudy Mist Fog Fog Overcast Overcast Overcast Partly cloudy Partly cloudy Partly cloudy Partly cloudy Partly cloudy Overcast Partly cloudy Partly cloudy Partly cloudy Partly cloudy Partly cloudy Partly cloudy Partly cloudy Partly cloudy Partly cloudy Partly cloudy Partly cloudy Partly cloudy Partly cloudy Partly cloudy Partly cloudy Partly cloudy Partly cloudy Partly cloudy Partly cloudy Partly cloudy Partly cloudy Partly cloudy Partly cloudy Partly cloudy Partly cloudy Partly cloudy Partly cloudy Overcast Overcast Patchy rain possible Cloudy Partly cloudy Mist Mist Mist
58°F
14°C
57°F
14°C
56°F
14°C
57°F
14°C
56°F
14°C
56°F
13°C
57°F
14°C
58°F
15°C
60°F
16°C
61°F
16°C
61°F
16°C
60°F
15°C
56°F
14°C
53°F
12°C
50°F
10°C
48°F
9°C
49°F
10°C
46°F
8°C
44°F
7°C
43°F
6°C
43°F
6°C
42°F
6°C
41°F
5°C
41°F
5°C
41°F
5°C
40°F
5°C
40°F
5°C
44°F
7°C
48°F
9°C
52°F
11°C
55°F
13°C
56°F
13°C
57°F
14°C
57°F
14°C
57°F
14°C
56°F
13°C
55°F
13°C
52°F
11°C
48°F
9°C
45°F
7°C
45°F
7°C
47°F
8°C
46°F
8°C
46°F
8°C
42°F
6°C
40°F
5°C
40°F
4°C
39°F
4°C
56°F
13°C
56°F
13°C
56°F
13°C
56°F
14°C
56°F
13°C
54°F
12°C
53°F
12°C
51°F
11°C
50°F
10°C
49°F
9°C
47°F
9°C
46°F
8°C
46°F
8°C
45°F
7°C
42°F
6°C
41°F
5°C
41°F
5°C
40°F
5°C
40°F
5°C
39°F
4°C
39°F
4°C
38°F
3°C
38°F
3°C
38°F
3°C
37°F
3°C
37°F
3°C
37°F
3°C
39°F
4°C
41°F
5°C
44°F
6°C
44°F
7°C
43°F
6°C
42°F
6°C
41°F
5°C
41°F
5°C
42°F
6°C
45°F
7°C
44°F
7°C
43°F
6°C
42°F
5°C
42°F
5°C
43°F
6°C
43°F
6°C
41°F
5°C
40°F
5°C
39°F
4°C
38°F
4°C
38°F
3°C
29.77 in
1008 mb
29.8 in
1009 mb
29.8 in
1009 mb
29.83 in
1010 mb
29.83 in
1010 mb
29.85 in
1011 mb
29.88 in
1012 mb
29.88 in
1012 mb
29.88 in
1012 mb
29.85 in
1011 mb
29.88 in
1012 mb
29.88 in
1012 mb
29.88 in
1012 mb
29.91 in
1013 mb
29.94 in
1014 mb
29.94 in
1014 mb
29.97 in
1015 mb
29.97 in
1015 mb
30 in
1016 mb
30 in
1016 mb
30 in
1016 mb
30 in
1016 mb
30 in
1016 mb
30 in
1016 mb
30.03 in
1017 mb
30.03 in
1017 mb
30.03 in
1017 mb
30.06 in
1018 mb
30.03 in
1017 mb
30.03 in
1017 mb
30.03 in
1017 mb
30.03 in
1017 mb
30 in
1016 mb
30 in
1016 mb
30 in
1016 mb
30 in
1016 mb
30 in
1016 mb
30.03 in
1017 mb
30.06 in
1018 mb
30.09 in
1019 mb
30.09 in
1019 mb
30.09 in
1019 mb
30.09 in
1019 mb
30.09 in
1019 mb
30.12 in
1020 mb
30.12 in
1020 mb
30.15 in
1021 mb
30.15 in
1021 mb
93%95%98%98%98%95%88%77%70%65%60%62%68%72%74%76%73%82%86%86%85%86%87%88%87%88%88%84%75%73%68%63%58%56%56%60%68%73%82%89%90%87%87%85%93%96%96%97%
SWWSWWWNWNWNWNWNWNWNWNWNWNWNWNWNWNWNWNWNWWNWNWNWWNWWNWWWWSWWNWNWNWNWNWNWNWNWNWNWNWNWNNWNNNWNNWNWNWNWWNW
6 mph
9 km/h
5 mph
8 km/h
4 mph
6 km/h
5 mph
8 km/h
8 mph
13 km/h
9 mph
15 km/h
11 mph
18 km/h
11 mph
17 km/h
11 mph
18 km/h
12 mph
19 km/h
13 mph
20 km/h
12 mph
20 km/h
12 mph
19 km/h
12 mph
19 km/h
10 mph
17 km/h
8 mph
13 km/h
8 mph
12 km/h
6 mph
9 km/h
4 mph
6 km/h
3 mph
5 km/h
2 mph
3 km/h
2 mph
4 km/h
3 mph
4 km/h
2 mph
4 km/h
2 mph
4 km/h
2 mph
4 km/h
2 mph
4 km/h
2 mph
4 km/h
4 mph
7 km/h
9 mph
14 km/h
11 mph
18 km/h
13 mph
21 km/h
13 mph
22 km/h
14 mph
22 km/h
13 mph
22 km/h
13 mph
20 km/h
11 mph
18 km/h
11 mph
18 km/h
7 mph
12 km/h
5 mph
8 km/h
6 mph
9 km/h
6 mph
9 km/h
6 mph
9 km/h
5 mph
9 km/h
5 mph
8 km/h
5 mph
8 km/h
5 mph
8 km/h
5 mph
8 km/h
0%0%0%68%0%0%0%0%0%0%0%0%0%0%0%0%0%0%0%0%0%0%0%0%0%0%0%0%0%0%0%0%0%0%0%0%0%0%0%0%0%0%63%0%0%0%0%0%
6 mi
10 km
1 mi
2 km
0 mi
0 km
0 mi
0 km
6 mi
10 km
6 mi
10 km
6 mi
10 km
6 mi
10 km
6 mi
10 km
6 mi
10 km
6 mi
10 km
6 mi
10 km
6 mi
10 km
6 mi
10 km
6 mi
10 km
6 mi
10 km
6 mi
10 km
6 mi
10 km
6 mi
10 km
6 mi
10 km
6 mi
10 km
6 mi
10 km
6 mi
10 km
6 mi
10 km
6 mi
10 km
6 mi
10 km
6 mi
10 km
6 mi
10 km
6 mi
10 km
6 mi
10 km
6 mi
10 km
6 mi
10 km
6 mi
10 km
6 mi
10 km
6 mi
10 km
6 mi
10 km
6 mi
10 km
6 mi
10 km
6 mi
10 km
6 mi
10 km
6 mi
10 km
6 mi
10 km
6 mi
10 km
6 mi
10 km
6 mi
10 km
1 mi
2 km
1 mi
2 km
1 mi
2 km

Day/Time
Weather
Condition
Temperature
Dew Point
Pressure
Humidity
Wind Direction
Wind Speed
Prob Precip %
Visibility
Prob Precip % = Probability of Precipitation.